Iridium Next SV164

operational
NORAD ID: 43577 Int'l Des: 2018-061 Owner: IRIDS Country: US Constellation: Iridium NEXT
LEOCIRCULARPOLAR

About Iridium Next SV164

Description loading...

Live Position

Loading 3D Globe...

Upcoming Passes

Altitude History

Altitude vs Time

uPlot chart will show altitude changes over time

Two-Line Element Set

1 43577U 18061J 26048.65470433 .00000015 00000-0 -17175-5 0 9997
2 43577 86.3947 106.7716 0002052 100.8152 259.3275 14.34217715396285
Epoch: Feb 17, 2026 • Age: 15 hours

Current Status

Altitude 806.9 km
Velocity 7.45 km/s
Sub-Earth Point -77.15°S, 153.99°W
Launch Date Jul 25, 2018
Age 7.5 years
Type communications

Technical Details

Classification Payload
Mass 860.00 kg
Dry Mass 700.00 kg
Total Mass 860.00 kg
Length 3.10 m
Diameter 1.50 m
Span 9.40 m
Shape Half Hex Prism+2 pan
Manufacturer NGISGA
Bus Type EliteBus
Phase Status In Orbit
Owner/State IRIDS/US

Large Constellations

Loading constellations...